Flag for Canada Weather past 2 weeks in Mount Pearl, Newfoundland and Labrador, Canada

Now
61 °F

Broken clouds.


Feels Like: 61 °F
Forecast: N/A
Wind: 9 mph from West

Location: St. John's

Current Time: Jul 28, 2015 at 7:24:05 PM

Latest Report: Jul 28, 2015 at 6:30 PM


Visibility: 15 mi

Pressure: 30.20 "Hg

Humidity: 77%

Dew point: 54 °F

Location of Mount PearlLocation

Historic Weather in Mount Pearl — Graph

°F

Mount Pearl temperature yesterday

Maximum temperature yesterday: 63 °F (at 2:30 PM)
Minimum temperature yesterday: 46 °F (at 12:30 AM)
Average temperature yesterday: 53 °F

Past Weeks' High & Low Weather Summary

 TemperatureHumidityPressure
High75 °F (Jul 16, 3:30 PM)100% (Jul 13, 10:30 PM)30.24 "Hg (Jul 13, 10:30 PM)
Low43 °F (Jul 25, 3:30 AM)55% (Jul 15, 2:30 AM)29.26 "Hg (Jul 23, 11:30 AM)
Average53 °F90%29.91 "Hg
* Reported Jul 13 5:30 PM — Jul 28 5:30 PM, Mount Pearl, Weather by CustomWeather, © 2015

Note: Actual official high and low records may vary slightly from our data, if they occured in-between our weather recording intervals... More about our weather records

Advertising

Mount Pearl weather history for previous 24 hours

 ConditionsComfort  
Time TempWeatherWind HumidityBarometerVisibility
5:30 PM
Tue, Jul 28
64 °FPartly sunny.10 mph73%30.19 "Hg15 mi
4:30 PM63 °FPartly sunny.13 mph73%30.19 "Hg15 mi
3:30 PM64 °FPartly sunny.13 mph68%30.19 "Hg15 mi
2:30 PM64 °FPartly sunny.13 mph73%30.20 "Hg15 mi
1:30 PM66 °FPartly sunny.12 mph73%30.21 "Hg15 mi
12:30 PM63 °FBroken clouds.15 mph73%30.22 "Hg15 mi
11:30 AM63 °FPartly sunny.14 mph68%30.23 "Hg15 mi
10:30 AM59 °FPartly sunny.7 mph82%30.23 "Hg15 mi
9:30 AM57 °FOvercast.13 mph77%30.24 "Hg15 mi
8:30 AM55 °FPartly sunny.10 mph82%30.23 "Hg15 mi
7:30 AM54 °FPartly sunny.13 mph88%30.23 "Hg15 mi
6:30 AM52 °FPartly sunny.7 mph94%30.23 "Hg15 mi
5:30 AM46 °FPassing clouds.7 mph100%30.22 "Hg15 mi
4:30 AM48 °FPassing clouds.8 mph94%30.22 "Hg15 mi
3:30 AM48 °FPassing clouds.13 mph94%30.23 "Hg15 mi
2:30 AM48 °FPassing clouds.12 mph94%30.24 "Hg15 mi
1:30 AM48 °FPassing clouds.14 mph94%30.24 "Hg15 mi
12:30 AM48 °FPassing clouds.17 mph94%30.24 "Hg15 mi
11:30 PM
Mon, Jul 27
48 °FPassing clouds.15 mph94%30.24 "Hg15 mi
10:30 PM50 °FPassing clouds.16 mph94%30.24 "Hg15 mi
9:30 PM52 °FPassing clouds.13 mph88%30.23 "Hg15 mi
8:30 PM55 °FPassing clouds.14 mph82%30.22 "Hg15 mi
7:30 PM59 °FPassing clouds.10 mph72%30.21 "Hg15 mi
Weather by CustomWeather, © 2015

See weather overviewHow to use our weather pages